Date String (YYYY-MM-DD hh:mm:ss) UTC,Instrument flags,absolute air pressure of the measurement (hPa),sample flow rate (lpm),inlet stack bypass flow (lpm),air temperature of the measurement (°C),ambient temperature measured by the external sensor (°C),aerosol sample conditioner tube jacket temperature (°C),OPC LED temperature (°C),internal box temperature (°C),relative humidity of the measurement (%),span deviation,mass concentration of particles derived from Lorenz-Mie calculation of OPC scattering (μg/m³),mass concentration of particles derived from Lorenz-Mie calculation of OPC scattering (μg/m³),mass concentration of particles derived from Lorenz-Mie calculation of OPC scattering (μg/m³)
DateTimeUTC,F1_M11,P_M11,Q1_M11,Q2_M11,T1_M11,T2_M11,T3_M11,T4_M11,T5_M11,U1_M11,ZSPAN_M11,X0_M11,X2_M11,X1_M11
2024-02-04 04:00:00,SystemResetWarning,0819.2,4.99,000.00,018.9,018.2,000.0,027.3,020.5,26.3,0000.0,0004.98,0003.76,0003.66
2024-02-04 04:01:00,SystemResetWarning,0819.3,4.99,000.00,018.8,018.2,000.0,027.3,020.6,26.5,0000.0,0004.46,0003.52,0003.43
2024-02-04 04:02:00,SystemResetWarning,0819.3,5.00,000.00,018.8,018.2,000.0,027.2,020.5,27.5,0000.0,0003.91,0003.25,0003.17
2024-02-04 04:03:00,SystemResetWarning,0819.3,5.01,000.00,018.8,018.2,000.0,027.2,020.5,27.1,0000.0,0003.34,0002.86,0002.73
2024-02-04 04:04:00,SystemResetWarning,0819.3,5.01,000.00,018.8,018.1,000.0,027.2,020.5,26.7,0000.0,0002.84,0002.39,0002.27
2024-02-04 04:05:00,SystemResetWarning,0819.3,4.98,000.00,018.8,018.1,000.0,027.2,020.5,26.7,0000.0,0002.49,0002.10,0001.99
2024-02-04 04:06:00,SystemResetWarning,0819.4,5.00,000.00,018.8,018.1,000.0,027.2,020.4,26.6,0000.0,0002.17,0001.84,0001.76
2024-02-04 04:07:00,SystemResetWarning,0819.3,5.01,000.00,018.8,018.1,000.0,027.2,020.4,26.5,0000.0,0001.96,0001.66,0001.58
2024-02-04 04:08:00,SystemResetWarning,0819.3,5.01,000.00,018.8,018.1,000.0,027.2,020.4,26.6,0000.0,0001.75,0001.48,0001.41
2024-02-04 04:09:00,SystemResetWarning,0819.5,4.99,000.00,018.8,018.1,000.0,027.2,020.4,26.7,0000.0,0001.63,0001.39,0001.32
2024-02-04 04:10:00,SystemResetWarning,0819.5,4.99,000.00,018.8,018.1,000.0,027.2,020.5,26.9,0000.0,0001.57,0001.34,0001.27
2024-02-04 04:11:00,SystemResetWarning,0819.4,5.00,000.00,018.8,018.1,000.0,027.2,020.5,26.8,0000.0,0001.59,0001.34,0001.27
2024-02-04 04:12:00,SystemResetWarning,0819.4,5.00,000.00,018.8,018.1,000.0,027.2,020.5,26.9,0000.0,0001.61,0001.36,0001.29
2024-02-04 04:13:00,SystemResetWarning,0819.4,5.01,000.00,018.8,018.1,000.0,027.2,020.5,26.8,0000.0,0001.63,0001.38,0001.31
2024-02-04 04:14:00,SystemResetWarning,0819.4,5.00,000.00,018.8,018.1,000.0,027.2,020.5,26.8,0000.0,0001.77,0001.45,0001.36
2024-02-04 04:15:00,SystemResetWarning,0819.5,5.00,000.00,018.8,018.1,000.0,027.2,020.5,26.7,0000.0,0001.87,0001.51,0001.41
2024-02-04 04:16:00,SystemResetWarning,0819.5,5.00,000.00,018.8,018.1,000.0,027.2,020.5,26.5,0000.0,0001.91,0001.57,0001.48
2024-02-04 04:17:00,SystemResetWarning,0819.5,4.98,000.00,018.8,018.1,000.0,027.2,020.5,26.6,0000.0,0002.01,0001.66,0001.55
2024-02-04 04:18:00,SystemResetWarning,0819.5,5.00,000.00,018.8,018.2,000.0,027.2,020.5,26.3,0000.0,0002.12,0001.74,0001.63
2024-02-04 04:19:00,SystemResetWarning,0819.5,5.01,000.00,018.8,018.2,000.0,027.2,020.5,26.3,0000.0,0002.27,0001.84,0001.71
2024-02-04 04:20:00,SystemResetWarning,0819.5,5.01,000.00,018.8,018.2,000.0,027.2,020.5,26.4,0000.0,0002.48,0001.96,0001.79
2024-02-04 04:21:00,SystemResetWarning,0819.5,5.00,000.00,018.8,018.2,000.0,027.2,020.5,26.4,0000.0,0002.68,0002.03,0001.83
2024-02-04 04:22:00,SystemResetWarning,0819.5,5.00,000.00,018.8,018.2,000.0,027.2,020.5,26.4,0000.0,0002.75,0002.08,0001.88
2024-02-04 04:23:00,SystemResetWarning,0819.5,4.99,000.00,018.8,018.2,000.0,027.2,020.5,26.5,0000.0,0002.80,0002.13,0001.93
2024-02-04 04:24:00,SystemResetWarning,0819.5,5.00,000.00,018.8,018.2,000.0,027.2,020.5,26.5,0000.0,0002.87,0002.17,0001.96
2024-02-04 04:25:00,SystemResetWarning,0819.6,4.99,000.00,018.8,018.2,000.0,027.2,020.5,26.4,0000.0,0002.84,0002.17,0001.97
2024-02-04 04:26:00,SystemResetWarning,0820.0,5.00,000.00,018.8,018.2,000.0,027.2,020.5,26.4,0000.0,0002.80,0002.16,0001.98
2024-02-04 04:27:00,SystemResetWarning,0819.6,5.01,000.00,018.8,018.2,000.0,027.2,020.5,26.3,0000.0,0002.83,0002.17,0001.97
2024-02-04 04:28:00,SystemResetWarning,0819.8,5.01,000.00,018.8,018.2,000.0,027.2,020.5,26.3,0000.0,0002.91,0002.16,0001.96
2024-02-04 04:29:00,SystemResetWarning,0819.7,4.99,000.00,018.8,018.2,000.0,027.2,020.5,26.4,0000.0,0002.90,0002.14,0001.96
2024-02-04 04:30:00,SystemResetWarning,0819.7,5.00,000.00,018.8,018.2,000.0,027.2,020.5,26.4,0000.0,0002.88,0002.11,0001.93
2024-02-04 04:31:00,SystemResetWarning,0820.0,4.99,000.00,018.8,018.2,000.0,027.2,020.5,26.2,0000.0,0002.78,0002.08,0001.93
2024-02-04 04:32:00,SystemResetWarning,0820.1,5.01,000.00,018.8,018.2,000.0,027.2,020.5,26.0,0000.0,0002.66,0002.08,0001.95
2024-02-04 04:33:00,SystemResetWarning,0820.2,5.01,000.00,018.8,018.2,000.0,027.2,020.5,25.9,0000.0,0002.65,0002.08,0001.96
2024-02-04 04:34:00,SystemResetWarning,0820.2,4.99,000.00,018.8,018.2,000.0,027.2,020.5,25.9,0000.0,0002.69,0002.08,0001.94
2024-02-04 04:35:00,SystemResetWarning,0820.2,5.00,000.00,018.8,018.2,000.0,027.2,020.5,25.9,0000.0,0002.65,0002.05,0001.91
2024-02-04 04:36:00,SystemResetWarning,0820.0,5.00,000.00,018.8,018.3,000.0,027.2,020.6,25.9,0000.0,0002.62,0002.03,0001.90
2024-02-04 04:37:00,SystemResetWarning,0819.7,4.99,000.00,018.8,018.3,000.0,027.2,020.6,25.9,0000.0,0002.73,0002.06,0001.88
2024-02-04 04:38:00,SystemResetWarning,0819.8,5.01,000.00,018.8,018.3,000.0,027.2,020.6,25.9,0000.0,0002.71,0002.03,0001.86
2024-02-04 04:39:00,SystemResetWarning,0819.8,5.00,000.00,018.8,018.3,000.0,027.2,020.5,25.9,0000.0,0002.67,0002.04,0001.86
2024-02-04 04:40:00,SystemResetWarning,0819.8,5.00,000.00,018.8,018.3,000.0,027.2,020.6,25.9,0000.0,0002.77,0002.07,0001.85
2024-02-04 04:41:00,SystemResetWarning,0819.8,5.00,000.00,018.8,018.3,000.0,027.2,020.6,25.9,0000.0,0002.76,0002.09,0001.87
2024-02-04 04:42:00,SystemResetWarning,0819.9,5.01,000.00,018.8,018.3,000.0,027.2,020.6,25.8,0000.0,0002.75,0002.09,0001.88
2024-02-04 04:43:00,SystemResetWarning,0820.2,4.99,000.00,018.8,018.3,000.0,027.2,020.6,25.8,0000.0,0002.78,0002.11,0001.90
2024-02-04 04:44:00,SystemResetWarning,0820.1,4.99,000.00,018.8,018.3,000.0,027.2,020.6,25.8,0000.0,0002.77,0002.09,0001.88
2024-02-04 04:45:00,SystemResetWarning,0820.0,5.00,000.00,018.8,018.3,000.0,027.2,020.6,25.9,0000.0,0002.71,0002.08,0001.87
2024-02-04 04:46:00,SystemResetWarning,0820.0,5.00,000.00,018.8,018.3,000.0,027.2,020.6,26.0,0000.0,0002.69,0002.08,0001.87
2024-02-04 04:47:00,SystemResetWarning,0820.0,5.00,000.00,018.9,018.3,000.0,027.2,020.6,26.1,0000.0,0002.65,0002.05,0001.87
2024-02-04 04:48:00,SystemResetWarning,0819.8,5.00,000.00,018.9,018.3,000.0,027.2,020.6,26.0,0000.0,0003.09,0002.05,0001.89
2024-02-04 04:49:00,SystemResetWarning,0820.1,5.00,000.00,018.8,018.3,000.0,027.2,020.6,26.0,0000.0,0004.48,0002.08,0001.91
2024-02-04 04:50:00,SystemResetWarning,0819.9,5.01,000.00,018.8,018.3,000.0,027.2,020.6,25.9,0000.0,0004.43,0002.06,0001.92
2024-02-04 04:51:00,SystemResetWarning,0819.9,5.00,000.00,018.9,018.3,000.0,027.2,020.6,25.8,0000.0,0004.55,0002.05,0001.92
2024-02-04 04:52:00,SystemResetWarning,0819.9,5.00,000.00,018.9,018.3,000.0,027.2,020.6,25.9,0000.0,0004.62,0002.05,0001.90
2024-02-04 04:53:00,SystemResetWarning,0819.9,5.00,000.00,018.9,018.3,000.0,027.2,020.6,26.1,0000.0,0004.59,0002.03,0001.88
2024-02-04 04:54:00,SystemResetWarning,0819.9,5.00,000.00,018.9,018.3,000.0,027.2,020.6,26.2,0000.0,0004.58,0002.01,0001.86
2024-02-04 04:55:00,SystemResetWarning,0820.1,5.00,000.00,018.9,018.3,000.0,027.2,020.6,26.0,0000.0,0004.59,0002.02,0001.87
2024-02-04 04:56:00,SystemResetWarning,0820.0,5.00,000.00,018.9,018.3,000.0,027.2,020.6,25.9,0000.0,0004.61,0002.06,0001.92
2024-02-04 04:57:00,SystemResetWarning,0820.1,5.00,000.00,018.9,018.4,000.0,027.2,020.6,25.9,0000.0,0004.62,0002.08,0001.94
2024-02-04 04:58:00,SystemResetWarning,0820.0,4.99,000.00,018.9,018.4,000.0,027.2,020.6,26.0,0000.0,0004.62,0002.08,0001.94
2024-02-04 04:59:00,SystemResetWarning,0820.2,4.99,000.00,018.9,018.4,000.0,027.2,020.6,26.0,0000.0,0004.45,0002.05,0001.92
